[ hide orbit diagram ]
For accurate long-term ephemerides, please instead use our Horizons system.This orbit viewer was implemented using two-body methods, and hence should not be used for determining accurate long-term trajectories (over several years or decades) or planetary encounter circumstances.
Orbital Elements at Epoch 2459200.5 (2020-Dec-17.0) TDB
Reference: JPL 17 (heliocentric ecliptic J2000)
Element | Value | Uncertainty (1-sigma) | Units |
e | .2544245259712692 | 5.9822e-07 | |
a | 2.474897509472205 | 1.0653e-07 | au |
q | 1.845222883797264 | 1.4026e-06 | au |
i | 3.630025124645526 | 1.2135e-05 | deg |
node | 205.2908577780729 | 9.0837e-05 | deg |
peri | 146.47995883427 | 0.00011102 | deg |
M | 220.4746910550305 | 8.0032e-05 | deg |
tp | 2459751.668954037706 (2022-Jun-21.16895404) | 0.00035045 | TDB |
period | 1422.113485746402 3.89 | 9.1817e-05 2.514e-07 | d yr |
n | .2531443542362953 | 1.6344e-08 | deg/d |
Q | 3.104572135147145 | 1.3363e-07 | au |
|
| | Orbit Determination Parameters
Additional Information
|
[ show covariance matrix ]
Physical Parameter Table
Parameter |
Symbol |
Value |
Units |
Sigma |
Reference |
Notes |
absolute magnitude |
H |
18.0 |
|
n/a |
MPO460576 |
|
|
414774 (2010 PO24) Discovered 2010-Aug-06 by Singh, A., Wadhwa, S. at Charleston |
Reference: | Last Updated: 2014-11-10 |
|
|